Temperature
-1 -1 -1 -1 -0 -0 -0 -1 -1 -1 -0 1 1 2 2 2 2 2 2 3 3 3 3 3 3 3 3 4 4 4 4 4 4 4 4 5 5 5
-1 -1 -1 -1 -1 -1 -1 -1 -1 -1 -1 -0 0 1 1 1 2 2 2 2 2 2 2 2 2 2 3 3 3 3 3 3 3 4 4 4 4 4
-2 -2 -2 -2 -2 -2 -1 -1 -2 -1 -1 -1 -0 0 0 0 1 1 1 1 1 1 1 2 2 2 2 2 2 2 2 3 3 3 3 3 3 3
-3 -3 -3 -2 -2 -2 -2 -2 -2 -2 -2 -1 -1 -0 -0 -0 -0 0 0 0 0 1 1 1 1 1 1 1 1 2 2 2 2 2 2 3 3 3
-3 -3 -3 -3 -3 -3 -3 -3 -2 -2 -2 -2 -1 -1 -1 -1 -1 -1 -0 -0 -0 -0 -0 -0 0 0 0 1 1 1 1 1 1 2 2 2 2 2
-4 -4 -4 -4 -4 -3 -3 -3 -3 -3 -3 -3 -2 -2 -2 -2 -2 -2 -1 -1 -1 -1 -1 -1 -1 -0 -0 -0 0 0 0 0 1 1 1 1 1 1
-5 -5 -4 -4 -4 -4 -4 -4 -4 -3 -3 -3 -3 -2 -2 -2 -2 -2 -2 -2 -2 -2 -2 -2 -2 -2 -1 -1 -1 -1 -0 -0 -0 0 0 0 0 0
-5 -5 -5 -5 -4 -4 -4 -4 -4 -4 -3 -3 -3 -3 -3 -3 -3 -3 -3 -3 -3 -3 -3 -2 -3 -3 -2 -2 -2 -1 -1 -1 -1 -1 -1 -1 -0 -0
-6 -6 -5 -5 -5 -5 -5 -4 -4 -4 -4 -4 -3 -3 -3 -3 -3 -3 -3 -3 -3 -3 -3 -3 -3 -3 -3 -3 -2 -2 -2 -2 -2 -2 -1 -1 -1 -1
-6 -6 -6 -6 -5 -5 -5 -5 -5 -4 -4 -4 -4 -4 -4 -4 -4 -4 -4 -4 -4 -4 -4 -4 -4 -4 -4 -3 -3 -3 -3 -3 -3 -2 -2 -2 -2 -2
-6 -6 -6 -6 -6 -6 -6 -5 -5 -5 -5 -5 -4 -4 -4 -4 -4 -4 -5 -5 -5 -5 -5 -5 -5 -5 -4 -4 -4 -3 -3 -3 -3 -3 -3 -3 -3 -2
-7 -7 -7 -6 -6 -6 -6 -6 -5 -5 -5 -5 -5 -5 -5 -5 -5 -5 -5 -5 -5 -6 -5 -5 -5 -5 -5 -5 -5 -4 -4 -4 -4 -4 -4 -3 -3 -3
-7 -7 -7 -7 -6 -6 -6 -6 -6 -6 -6 -6 -6 -6 -6 -6 -6 -6 -6 -6 -6 -6 -6 -6 -6 -6 -6 -6 -5 -5 -5 -5 -5 -4 -4 -4 -4 -4
-8 -7 -7 -7 -7 -7 -7 -6 -6 -6 -6 -6 -6 -6 -6 -6 -6 -6 -6 -6 -6 -6 -6 -6 -6 -6 -6 -7 -6 -6 -6 -6 -6 -5 -5 -5 -4 -4
-8 -8 -8 -7 -7 -7 -7 -7 -7 -7 -7 -7 -7 -7 -7 -7 -7 -7 -7 -7 -7 -7 -7 -7 -7 -7 -7 -7 -7 -6 -6 -6 -6 -6 -6 -5 -5 -5
-8 -8 -8 -8 -8 -8 -8 -8 -8 -8 -8 -8 -8 -8 -8 -8 -8 -8 -8 -8 -8 -7 -7 -7 -7 -7 -8 -7 -7 -7 -7 -7 -6 -6 -6 -6 -6 -6
-9 -9 -9 -9 -9 -9 -9 -9 -9 -9 -9 -9 -9 -9 -9 -9 -8 -8 -8 -8 -8 -8 -8 -8 -8 -8 -8 -8 -8 -7 -7 -7 -7 -7 -7 -7 -6 -6
-9 -9 -9 -9 -9 -9 -9 -9 -9 -9 -9 -9 -9 -9 -9 -9 -9 -9 -9 -9 -9 -9 -9 -8 -8 -8 -8 -8 -8 -8 -8 -8 -8 -7 -8 -7 -7 -7
-10 -10 -10 -10 -10 -10 -10 -10 -10 -10 -10 -10 -10 -10 -10 -10 -10 -10 -10 -10 -9 -9 -9 -9 -9 -9 -9 -9 -9 -8 -8 -8 -8 -8 -8 -8 -8 -7
-10 -10 -10 -10 -10 -10 -10 -10 -10 -10 -10 -10 -10 -10 -10 -10 -10 -10 -10 -10 -10 -10 -10 -9 -9 -9 -10 -9 -9 -9 -8 -9 -9 -9 -8 -8 -8 -8
-11 -11 -11 -11 -11 -11 -11 -11 -11 -11 -11 -11 -11 -11 -11 -11 -11 -11 -11 -11 -11 -10 -10 -10 -10 -10 -10 -10 -10 -9 -9 -9 -9 -9 -9 -9 -9 -8
-11 -11 -11 -11 -11 -11 -11 -11 -11 -11 -11 -11 -11 -11 -11 -11 -11 -11 -11 -11 -11 -11 -10 -10 -10 -10 -10 -10 -10 -10 -10 -9 -9 -9 -9 -9 -9 -9
-12 -12 -12 -12 -11 -12 -12 -12 -12 -12 -12 -12 -12 -12 -12 -12 -12 -12 -12 -11 -11 -11 -11 -11 -11 -11 -11 -11 -11 -10 -10 -10 -10 -10 -9 -9 -9 -9
Wind_Speed
7 7 6 5 5 5 6 6 6 6 7 5 3 4 4 5 5 6 7 7 8 9 9 9 9 9 10 10 10 9 9 9 10 9 9 9 10 11
6 8 7 6 6 6 6 6 7 8 8 6 5 5 6 6 6 7 7 8 9 9 9 9 9 9 10 10 10 9 9 8 8 8 9 9 9 10
8 8 9 8 6 6 6 7 7 8 9 8 6 6 7 6 6 7 7 7 8 9 10 10 10 10 11 11 10 10 9 8 8 9 9 9 9 10
9 9 9 7 8 7 7 8 8 8 9 10 7 6 7 7 7 7 6 7 7 9 10 10 10 11 11 11 11 10 9 8 8 9 9 9 10 10
10 10 10 9 9 8 8 8 8 8 8 9 8 6 6 6 6 6 7 6 6 8 9 9 9 10 10 10 9 8 8 8 9 9 8 9 10 10
10 10 10 11 11 10 9 9 8 9 9 8 7 6 6 6 6 6 6 5 5 6 7 8 9 9 9 9 8 8 8 8 8 8 8 9 10 11
10 10 11 12 13 11 9 9 9 9 8 8 8 7 6 6 6 5 6 5 6 5 6 6 6 6 7 7 7 7 7 7 7 8 8 9 10 10
10 10 10 12 13 14 15 14 13 11 10 9 8 9 9 8 7 6 6 5 6 4 5 6 6 6 6 6 7 8 9 9 9 9 9 9 10 10
10 9 8 9 11 10 11 12 13 14 15 11 11 11 10 9 8 8 8 8 7 6 6 7 6 7 7 7 9 10 9 9 9 9 10 10 11 11
10 10 10 10 10 10 9 10 10 10 12 11 11 10 9 8 8 8 8 7 6 6 5 7 7 7 7 7 9 10 10 10 10 11 11 10 11 11
9 10 10 10 12 12 10 10 10 9 10 12 12 11 10 10 8 5 6 6 6 6 5 6 6 7 7 7 8 10 11 11 11 11 12 12 12 11
8 9 11 11 12 12 10 9 9 9 8 8 8 8 8 8 9 8 7 7 6 6 5 5 5 5 5 6 6 6 7 9 11 12 11 11 11 9
6 7 7 11 11 11 10 8 9 8 7 6 6 5 5 5 6 7 7 7 7 7 5 4 5 6 6 6 7 6 6 7 8 9 10 11 12 11
7 6 6 9 10 10 9 8 7 6 5 4 5 5 5 5 5 5 6 6 7 8 7 6 6 6 6 7 7 6 6 7 8 8 8 10 11 12
6 7 7 7 7 6 6 6 5 4 4 5 5 5 5 5 4 4 4 5 6 7 7 8 7 7 7 8 8 8 7 7 7 7 7 8 8 8
5 5 6 6 5 4 4 4 4 4 5 5 5 5 4 4 4 4 4 4 4 5 5 6 7 7 7 8 8 8 7 6 6 7 7 8 8 9
5 4 3 3 4 4 3 4 4 4 4 4 4 4 4 4 4 4 4 4 5 5 5 4 4 5 8 8 8 8 8 7 7 7 7 8 8 9
5 4 4 5 5 4 4 4 4 4 4 4 4 4 4 4 4 4 4 4 5 5 5 4 4 4 5 6 7 8 7 7 7 7 7 8 9 8
4 4 5 5 5 4 4 4 4 4 3 4 4 4 5 5 4 4 4 5 5 5 5 5 5 5 6 7 6 6 6 6 6 7 7 8 9 9
3 4 4 4 4 4 4 4 4 4 4 4 4 5 5 5 5 5 5 5 5 5 5 5 5 5 6 7 7 7 8 7 7 8 8 8 8 11
4 4 4 4 4 4 4 4 4 4 4 4 5 5 5 5 5 5 5 7 6 6 6 6 6 6 5 4 5 6 6 8 9 8 8 8 8 8
4 4 4 4 4 5 4 4 4 5 5 5 5 5 5 5 5 6 6 6 6 6 6 6 5 4 5 6 7 8 8 8 9 11 12 11 8 7
4 4 4 4 5 4 5 5 5 5 5 5 5 5 5 5 5 5 5 6 5 6 5 5 5 5 5 5 6 7 8 9 7 7 7 11 14 17
Wind_Direction
235 237 241 244 241 240 239 241 250 263 263 262 257 241 259 269 275 268 269 266 265 266 269 274 278 279 282 287 280 285 276 269 265 264 259 264 257 255
236 236 238 242 243 240 238 240 242 250 260 259 268 272 272 273 269 270 272 268 265 262 264 269 271 273 279 281 280 279 278 267 264 261 260 265 265 253
235 235 237 240 243 242 239 238 241 244 256 266 268 271 266 272 270 270 267 263 263 265 266 267 269 271 272 274 277 272 273 261 261 260 256 260 266 261
234 235 237 238 240 242 241 240 242 244 251 261 265 267 265 265 271 265 270 268 264 268 270 271 272 271 270 269 272 267 270 260 264 265 260 261 265 262
233 232 236 237 239 241 241 241 243 245 247 255 259 262 268 266 269 265 263 267 268 267 267 270 273 275 272 268 267 265 269 260 261 263 266 265 266 262
235 235 236 236 238 241 242 241 242 245 245 250 253 257 263 265 261 265 263 267 268 276 274 274 272 271 269 267 268 266 266 258 260 262 266 267 271 262
237 238 238 239 241 242 241 240 240 242 244 249 249 255 255 258 256 263 264 274 271 274 277 275 276 271 267 261 264 264 271 262 262 265 268 267 273 266
238 240 240 240 242 245 247 248 246 244 243 248 248 249 252 257 259 258 266 266 274 268 274 276 277 275 272 261 261 265 268 263 264 264 267 269 274 266
238 239 243 242 242 243 247 250 252 254 252 251 249 249 253 250 254 255 254 259 268 270 274 276 275 274 274 263 261 263 262 261 265 267 267 269 272 265
240 239 241 242 240 241 242 245 247 249 250 249 250 250 252 252 250 257 262 268 277 268 266 276 281 283 282 268 258 257 255 259 264 268 269 270 271 266
245 241 239 241 241 242 242 243 248 252 255 255 255 256 256 255 252 255 258 256 270 273 271 271 278 288 284 274 259 256 255 258 263 266 266 266 269 267
246 243 242 240 241 242 240 240 244 249 251 253 251 253 251 248 249 242 245 247 260 266 259 263 271 286 285 277 269 262 255 258 262 260 261 261 264 264
243 243 241 238 241 246 248 244 244 250 252 250 251 249 249 247 244 244 246 242 248 260 251 262 268 269 267 279 281 270 260 266 268 262 259 262 266 263
243 245 242 243 245 249 251 247 252 255 249 247 245 245 246 250 254 257 255 257 260 260 250 250 257 258 264 272 275 273 270 268 266 264 261 264 266 263
245 243 245 250 251 247 239 238 245 241 238 243 247 251 254 256 259 264 268 269 270 265 253 251 248 250 256 262 272 271 277 271 265 262 263 266 266 266
241 242 247 250 244 245 241 237 239 239 241 243 250 261 260 254 253 250 255 258 270 272 268 255 247 248 257 260 264 264 265 260 261 269 265 267 263 261
233 231 231 233 234 235 239 241 241 238 241 243 244 254 254 252 254 255 256 260 264 266 272 274 269 261 261 262 264 259 260 265 265 269 271 265 264 264
224 222 227 230 231 233 235 238 239 238 239 244 244 247 254 254 257 258 256 257 257 261 267 272 276 282 281 277 258 253 258 265 269 268 270 267 266 266
222 223 227 228 231 232 234 236 241 245 243 242 245 248 253 255 255 254 254 256 259 263 267 268 267 267 271 282 286 264 266 273 276 274 270 265 268 271
228 228 230 230 231 232 234 241 246 246 244 244 246 248 252 255 254 253 253 255 261 266 269 264 258 258 261 274 282 284 277 270 272 275 279 284 279 279
232 235 234 233 234 236 238 239 240 243 245 246 247 249 248 252 255 257 258 260 263 263 262 265 271 280 282 280 274 274 277 274 272 272 278 281 282 280
239 239 239 240 238 238 238 236 238 242 244 246 249 249 250 253 255 257 257 258 260 263 270 275 277 278 274 267 267 276 289 294 289 279 270 266 264 265
243 244 244 240 238 238 238 237 238 241 243 247 248 249 249 251 255 256 259 259 261 264 269 274 279 281 275 266 270 278 287 295 296 291 282 276 271 270
Height
1488 1489 1490 1491 1492 1493 1494 1495 1495 1493 1491 1491 1491 1491 1492 1492 1492 1492 1492 1493 1493 1493 1494 1494 1494 1494 1495 1495 1496 1496 1497 1498 1499 1499 1501 1501 1502 1503
1482 1483 1484 1485 1486 1487 1488 1489 1490 1490 1488 1486 1486 1486 1486 1486 1486 1487 1487 1487 1487 1487 1487 1488 1488 1488 1489 1489 1489 1490 1491 1492 1493 1493 1494 1495 1496 1497
1476 1477 1478 1479 1480 1482 1483 1483 1484 1485 1483 1481 1481 1481 1481 1481 1481 1481 1482 1481 1481 1481 1482 1482 1482 1482 1482 1483 1483 1484 1484 1485 1486 1487 1488 1489 1490 1490
1469 1471 1472 1473 1474 1476 1477 1477 1478 1478 1478 1476 1475 1475 1475 1476 1476 1476 1476 1476 1476 1475 1476 1475 1475 1476 1476 1476 1477 1477 1478 1479 1480 1480 1481 1482 1483 1484
1463 1464 1465 1467 1468 1469 1470 1471 1471 1472 1472 1472 1470 1470 1470 1470 1470 1470 1470 1470 1470 1470 1470 1470 1469 1469 1470 1470 1470 1470 1471 1472 1473 1474 1474 1475 1476 1477
1456 1458 1459 1460 1461 1462 1463 1464 1465 1466 1466 1466 1465 1464 1464 1465 1465 1464 1464 1464 1464 1464 1464 1464 1464 1464 1463 1463 1463 1464 1464 1465 1466 1467 1467 1468 1469 1469
1449 1451 1452 1453 1454 1456 1457 1458 1459 1459 1460 1459 1459 1459 1459 1459 1459 1459 1459 1458 1458 1459 1458 1458 1458 1458 1457 1457 1457 1457 1457 1458 1458 1459 1460 1461 1462 1462
1442 1444 1445 1447 1448 1449 1450 1451 1452 1453 1453 1453 1453 1453 1452 1453 1454 1454 1453 1453 1452 1453 1453 1452 1453 1452 1451 1451 1451 1451 1451 1451 1452 1452 1453 1454 1455 1455
1436 1437 1438 1440 1441 1442 1443 1444 1445 1445 1446 1447 1447 1446 1447 1447 1448 1448 1447 1447 1446 1446 1448 1445 1446 1445 1445 1445 1444 1445 1445 1445 1446 1446 1447 1447 1448 1448
1430 1431 1432 1433 1434 1435 1436 1437 1437 1438 1439 1440 1440 1440 1441 1441 1442 1442 1442 1441 1441 1442 1442 1441 1440 1439 1439 1438 1438 1438 1438 1439 1439 1439 1440 1440 1441 1441
1424 1425 1426 1426 1427 1429 1430 1430 1430 1431 1432 1432 1433 1434 1434 1435 1436 1437 1436 1436 1435 1435 1435 1435 1434 1433 1432 1431 1431 1431 1431 1432 1432 1432 1432 1433 1434 1434
1418 1419 1419 1420 1421 1422 1423 1424 1424 1424 1425 1425 1426 1427 1428 1428 1430 1430 1430 1430 1429 1428 1428 1429 1428 1428 1426 1425 1425 1425 1425 1425 1425 1425 1425 1426 1427 1428
1412 1413 1413 1414 1415 1416 1417 1418 1418 1419 1419 1419 1420 1420 1421 1422 1423 1423 1424 1424 1423 1422 1423 1423 1423 1422 1422 1419 1418 1419 1419 1418 1418 1418 1419 1419 1420 1420
1406 1407 1408 1408 1409 1410 1411 1412 1413 1413 1413 1414 1414 1414 1415 1415 1416 1416 1417 1417 1417 1416 1416 1417 1417 1416 1415 1414 1412 1412 1412 1412 1411 1411 1411 1412 1412 1412
1401 1402 1402 1403 1404 1405 1405 1406 1407 1407 1408 1408 1408 1408 1409 1409 1410 1410 1409 1410 1409 1410 1410 1410 1410 1410 1410 1408 1406 1405 1405 1404 1404 1404 1405 1405 1404 1404
1396 1397 1398 1399 1399 1400 1400 1400 1401 1402 1402 1403 1402 1403 1403 1404 1404 1404 1403 1403 1403 1403 1403 1404 1404 1404 1403 1402 1401 1399 1398 1398 1397 1397 1397 1397 1397 1397
1390 1391 1392 1393 1394 1394 1395 1396 1396 1396 1397 1397 1398 1398 1398 1398 1398 1398 1398 1397 1397 1397 1397 1397 1397 1397 1397 1396 1394 1393 1392 1391 1391 1391 1390 1389 1389 1390
1386 1386 1387 1388 1388 1389 1390 1390 1391 1391 1392 1392 1392 1392 1393 1393 1393 1393 1393 1393 1392 1391 1391 1391 1391 1390 1389 1388 1389 1387 1386 1385 1384 1384 1384 1383 1381 1382
1381 1381 1382 1383 1383 1384 1385 1385 1385 1386 1387 1387 1387 1387 1388 1388 1388 1387 1387 1387 1387 1386 1386 1386 1386 1385 1384 1381 1380 1382 1381 1379 1378 1378 1377 1376 1374 1373
1375 1376 1377 1378 1379 1379 1380 1380 1381 1382 1382 1382 1382 1382 1383 1383 1382 1382 1382 1382 1381 1381 1381 1381 1381 1381 1380 1378 1375 1374 1376 1374 1373 1371 1370 1369 1368 1367
1371 1372 1372 1373 1374 1375 1375 1376 1376 1377 1377 1378 1378 1378 1378 1378 1377 1377 1377 1376 1377 1376 1375 1375 1375 1376 1374 1373 1371 1368 1369 1369 1368 1366 1364 1363 1360 1359
1367 1367 1368 1369 1370 1370 1370 1371 1371 1372 1372 1373 1372 1373 1373 1373 1372 1372 1372 1372 1371 1371 1370 1370 1370 1370 1369 1367 1365 1363 1362 1361 1361 1360 1359 1358 1355 1351
1363 1364 1364 1364 1365 1365 1366 1366 1366 1367 1367 1367 1367 1368 1368 1368 1368 1368 1367 1367 1367 1366 1365 1365 1364 1364 1363 1362 1361 1358 1356 1355 1354 1353 1352 1351 1350 1348